1520838001.22,61546,8.81,72172.5,-1.15,-2.03,-2.03,0,*55
1520838002.48,61547,8.81,72188.0,-1.15,-2.03,-2.03,0,*54
1520838003.73,61548,8.81,72198.5,-1.15,-2.11,-2.11,0,*5B
1520838004.99,61549,8.81,72192.0,-1.15,-2.03,-2.03,0,*5A
1520838006.24,61550,8.81,72200.8,-1.15,-2.03,-2.03,0,*52
1520838007.5,61551,8.81,72218.0,-1.15,-2.03,-2.03,0,*53
1520838008.75,61552,8.81,72210.5,-1.15,-2.03,-2.03,0,*50
1520838010.0,61553,8.81,72194.0,-1.17,-2.07,-2.07,0,*53
1520838011.25,61554,8.81,72200.0,-1.15,-2.11,-2.11,0,*56
1520838012.51,61555,8.81,72176.8,-1.15,-2.11,-2.03,0,*54
1520838013.77,61556,8.81,72180.0,-1.15,-2.11,-2.03,0,*57
1520838015.02,61557,8.81,72184.5,-1.15,-2.03,-2.11,0,*56
1520838016.27,61558,8.81,72196.3,-1.15,-2.11,-2.03,0,*59
1520838017.53,61559,8.81,72198.8,-1.15,-2.03,-2.03,0,*5B
1520838018.78,61560,8.81,72206.0,-1.15,-2.03,-2.11,0,*52
1520838020.03,61561,8.81,72202.8,-1.17,-2.03,-2.07,0,*56
1520838021.29,61562,8.81,72190.0,-1.15,-2.11,-2.03,0,*50
1520838022.54,61563,8.81,72178.8,-1.15,-2.11,-2.03,0,*51
1520838023.76,61564,8.81,72180.5,-1.17,-2.15,-2.07,0,*54
1520838025.02,61565,8.81,72180.5,-1.15,-2.03,-1.99,0,*54
1520838026.27,61566,8.81,72194.5,-1.15,-1.99,-1.91,0,*5F
1520838027.53,61567,8.81,72202.0,-1.15,-2.03,-1.99,0,*56
1520838028.79,61568,8.81,72164.8,-1.15,-2.03,-1.99,0,*59
1520838030.04,61569,8.81,72188.8,-1.15,-1.91,-1.99,0,*50
1520838031.32,61570,8.81,72200.5,-1.13,-2.03,-1.91,0,*5E
1520838032.58,61571,8.81,72206.8,-1.15,-1.99,-1.99,0,*51
1520838033.84,61572,8.81,72204.3,-1.15,-1.99,-1.91,0,*5A
1520838035.1,61573,8.81,72190.0,-1.15,-1.99,-1.99,0,*53
1520838036.35,61574,8.81,72200.0,-1.15,-1.91,-1.99,0,*5C
1520838037.61,61575,8.81,72204.8,-1.15,-1.99,-1.91,0,*5D
1520838038.86,61576,8.81,72186.8,-1.15,-1.99,-1.91,0,*5E
1520838040.15,61577,8.81,72198.8,-1.13,-2.11,-1.99,0,*52
1520838041.43,61578,8.81,72196.0,-1.13,-1.99,-1.99,0,*5E
1520838042.68,61579,8.81,72192.0,-1.15,-1.91,-1.99,0,*51
1520838043.94,61580,8.81,72190.3,-1.15,-1.99,-1.99,0,*5F
1520838045.2,61581,8.81,72210.3,-1.15,-2.11,-1.91,0,*55
1520838046.46,61582,8.81,72206.3,-1.15,-2.03,-1.99,0,*5D
1520838047.72,61583,8.81,72186.3,-1.15,-2.03,-1.99,0,*5C
1520838048.97,61584,8.81,72168.8,-1.15,-2.03,-1.99,0,*5B
1520838050.25,61585,8.81,72166.0,-1.13,-2.11,-2.03,0,*5F
1520838051.51,61586,8.81,72164.0,-1.15,-2.03,-2.11,0,*5A
1520838052.76,61587,8.81,72166.0,-1.15,-2.03,-2.03,0,*58
1520838054.02,61588,8.81,72168.5,-1.15,-2.03,-2.03,0,*57
1520838055.27,61589,8.81,72184.3,-1.15,-2.11,-2.03,0,*55
1520838056.53,61590,8.81,72200.5,-1.15,-2.03,-2.03,0,*5E
1520838057.78,61591,8.81,72182.8,-1.15,-2.03,-1.91,0,*57
1520838059.04,61592,8.81,72196.5,-1.15,-2.03,-1.99,0,*5C
1520838060.31,61593,8.81,72202.0,-1.13,-2.03,-2.03,0,*5B
1520838061.57,61594,8.81,72242.5,-1.15,-2.03,-1.99,0,*5A
1520838062.83,61595,8.81,72182.5,-1.15,-2.11,-1.99,0,*58
1520838064.09,61596,8.81,72192.0,-1.15,-2.03,-1.99,0,*58
1520838065.36,61597,8.81,72218.8,-1.13,-2.03,-2.11,0,*5C
1520838066.64,61598,8.81,72214.5,-1.13,-2.11,-2.11,0,*50
1520838067.92,61599,8.81,72198.8,-1.13,-2.11,-2.11,0,*51
1520838069.2,61600,8.81,72208.5,-1.13,-2.03,-2.11,0,*51
1520838070.46,61601,8.81,72210.8,-1.15,-2.11,-2.03,0,*56
1520838071.74,61602,8.81,72222.3,-1.13,-2.11,-2.11,0,*50
1520838073.02,61603,8.81,72228.5,-1.13,-2.11,-2.03,0,*52
1520838074.26,61604,8.81,72222.0,-1.13,-2.15,-2.11,0,*52
1520838075.48,61605,8.81,72202.5,-1.17,-2.15,-2.11,0,*57
1520838076.7,61606,8.81,72192.8,-1.15,-2.15,-2.11,0,*56
1520838077.91,61607,8.81,72190.0,-1.15,-2.23,-2.23,0,*53
1520838079.1,61608,8.81,72180.5,-1.15,-2.23,-2.35,0,*5B
1520838080.3,61609,8.81,72188.8,-1.15,-2.27,-2.27,0,*5D
1520838081.5,61610,8.81,72178.3,-1.15,-2.35,-2.27,0,*56
1520838082.69,61611,8.81,72154.3,-1.17,-2.31,-2.39,0,*5E
1520838083.88,61612,8.81,72162.0,-1.15,-2.27,-2.27,0,*57
1520838085.08,61613,8.81,72172.0,-1.17,-2.27,-2.31,0,*53
1520838086.27,61614,8.81,72166.3,-1.17,-2.31,-2.31,0,*53
1520838087.47,61615,8.81,72174.3,-1.17,-2.31,-2.31,0,*52
1520838088.66,61616,8.81,72184.5,-1.15,-2.23,-2.27,0,*57
1520838089.85,61617,8.81,72202.8,-1.17,-2.27,-2.27,0,*50
1520838091.05,61618,8.81,72188.8,-1.15,-2.23,-2.23,0,*5D
1520838092.24,61619,8.81,72192.0,-1.15,-2.23,-2.27,0,*58
1520838093.43,61620,8.81,72186.8,-1.17,-2.31,-2.39,0,*5C
1520838094.64,61621,8.81,72178.8,-1.19,-2.39,-2.43,0,*56
1520838095.86,61622,8.81,72180.0,-1.19,-2.43,-2.43,0,*58
1520838097.1,61623,8.81,72152.8,-1.19,-2.43,-2.51,0,*5A
1520838098.34,61624,8.81,72142.0,-1.19,-2.51,-2.43,0,*5D
1520838099.58,61625,8.81,72162.5,-1.19,-2.51,-2.43,0,*5C
1520838100.79,61626,8.81,72178.5,-1.19,-2.39,-2.43,0,*51
1520838102.01,61627,8.81,72180.3,-1.19,-2.39,-2.31,0,*55
1520838103.22,61628,8.81,72184.0,-1.19,-2.39,-2.31,0,*5A
1520838104.44,61629,8.81,72188.8,-1.19,-2.31,-2.39,0,*5B
1520838105.67,61630,8.81,72180.0,-1.19,-2.31,-2.31,0,*5B
1520838106.88,61631,8.81,72180.0,-1.19,-2.31,-2.27,0,*5D
1520838108.07,61632,8.81,72158.8,-1.21,-2.35,-2.35,0,*52
1520838109.27,61633,8.81,72154.5,-1.21,-2.35,-2.31,0,*57
1520838110.48,61634,8.81,72142.5,-1.19,-2.39,-2.39,0,*5F
1520838111.7,61635,8.81,72152.5,-1.19,-2.39,-2.31,0,*56
1520838112.91,61636,8.81,72162.8,-1.19,-2.39,-2.39,0,*5D
1520838114.13,61637,8.81,72174.8,-1.19,-2.31,-2.39,0,*54
1520838115.35,61638,8.81,72180.3,-1.19,-2.39,-2.31,0,*5B
1520838116.56,61639,8.81,72174.3,-1.19,-2.39,-2.39,0,*52
1520838117.78,61640,8.81,72166.8,-1.19,-2.31,-2.31,0,*5C
1520838118.98,61641,8.81,72198.0,-1.21,-2.31,-2.31,0,*56
1520838120.2,61642,8.81,72196.8,-1.19,-2.31,-2.31,0,*5E
1520838121.39,61643,8.81,72202.0,-1.21,-2.43,-2.43,0,*54
1520838122.58,61644,8.81,72196.3,-1.21,-2.35,-2.35,0,*53
1520838123.77,61645,8.81,72194.0,-1.21,-2.35,-2.35,0,*52
1520838124.96,61646,8.81,72194.8,-1.21,-2.43,-2.43,0,*51
1520838126.18,61647,8.81,72194.3,-1.19,-2.31,-2.39,0,*53
1520838127.37,61648,8.81,72200.3,-1.21,-2.43,-2.35,0,*5E
1520838128.57,61649,8.81,72194.5,-1.21,-2.43,-2.35,0,*5F
1520838129.76,61650,8.81,72204.5,-1.21,-2.43,-2.35,0,*57
1520838130.95,61651,8.81,72210.3,-1.21,-2.43,-2.35,0,*56
1520838132.14,61652,8.81,72212.5,-1.21,-2.39,-2.39,0,*54
1520838133.33,61653,8.81,72198.5,-1.21,-2.35,-2.43,0,*54
1520838134.52,61654,8.81,72194.3,-1.21,-2.43,-2.35,0,*53
1520838135.74,61655,8.81,72188.3,-1.19,-2.31,-2.39,0,*50
1520838136.93,61656,8.81,72192.0,-1.21,-2.35,-2.35,0,*50
1520838138.12,61657,8.81,72194.0,-1.21,-2.35,-2.35,0,*51
1520838139.31,61658,8.81,72184.3,-1.21,-2.35,-2.35,0,*5E
1520838140.51,61659,8.81,72188.5,-1.21,-2.35,-2.35,0,*5F
1520838141.7,61660,8.81,72202.0,-1.21,-2.43,-2.35,0,*54
1520838142.89,61661,8.81,72202.8,-1.21,-2.43,-2.35,0,*55
1520838144.08,61662,8.81,72192.5,-1.21,-2.43,-2.43,0,*57
1520838145.27,61663,8.81,72202.5,-1.21,-2.43,-2.35,0,*57
1520838146.49,61664,8.81,72196.3,-1.25,-2.47,-2.39,0,*5C
1520838147.71,61665,8.81,72204.3,-1.23,-2.39,-2.39,0,*52
1520838148.92,61666,8.81,72188.5,-1.23,-2.39,-2.39,0,*51
1520838150.11,61667,8.81,72204.8,-1.21,-2.43,-2.35,0,*53
1520838151.33,61668,8.81,72194.8,-1.23,-2.39,-2.39,0,*5F
1520838152.61,61669,8.81,72188.3,-1.23,-2.47,-2.47,0,*5E
1520838153.85,61670,8.81,72200.5,-1.23,-2.39,-2.47,0,*5F
1520838155.07,61671,8.81,72198.5,-1.23,-2.39,-2.39,0,*57
1520838156.31,61672,8.81,72172.0,-1.23,-2.39,-2.47,0,*5D
1520838157.52,61673,8.81,72156.3,-1.25,-2.39,-2.47,0,*5A
1520838158.74,61674,8.81,72170.0,-1.23,-2.39,-2.39,0,*52
1520838159.96,61675,8.81,72198.0,-1.23,-2.35,-2.39,0,*5F
1520838161.18,61676,8.81,72164.0,-1.23,-2.39,-2.35,0,*5C
1520838162.42,61677,8.81,72184.3,-1.23,-2.39,-2.47,0,*58
1520838163.67,61678,8.81,72182.0,-1.23,-2.47,-2.39,0,*57
1520838164.89,61679,8.81,72160.8,-1.23,-2.39,-2.39,0,*5F
1520838166.1,61680,8.81,72172.0,-1.23,-2.35,-2.39,0,*55
1520838167.29,61681,8.81,72174.0,-1.25,-2.35,-2.35,0,*5E
1520838168.51,61682,8.81,72184.8,-1.23,-2.27,-2.35,0,*58
1520838169.73,61683,8.81,72184.5,-1.23,-2.35,-2.27,0,*59
1520838170.94,61684,8.81,72178.0,-1.23,-2.27,-2.27,0,*5D
1520838172.13,61685,8.81,72180.0,-1.25,-2.27,-2.35,0,*59
1520838173.35,61686,8.81,72164.8,-1.23,-2.27,-2.27,0,*5F
1520838174.57,61687,8.81,72186.3,-1.23,-2.27,-2.23,0,*5A
1520838175.76,61688,8.81,72188.3,-1.25,-2.27,-2.23,0,*53
1520838176.98,61689,8.81,72192.0,-1.23,-2.27,-2.23,0,*54
1520838178.19,61690,8.81,72182.0,-1.23,-2.23,-2.27,0,*5C
1520838179.38,61691,8.81,72182.3,-1.25,-2.23,-2.23,0,*5F
1520838180.6,61692,8.81,72186.0,-1.23,-2.23,-2.15,0,*5F
1520838181.82,61693,8.81,72196.0,-1.23,-2.23,-2.15,0,*5E
1520838183.04,61694,8.81,72196.8,-1.23,-2.15,-2.15,0,*5C
1520838184.26,61695,8.81,72178.3,-1.21,-2.11,-2.19,0,*57
1520838185.48,61696,8.81,72166.0,-1.21,-2.19,-2.11,0,*54
1520838186.7,61697,8.81,72200.5,-1.21,-2.19,-2.11,0,*55
1520838187.91,61698,8.81,72194.8,-1.21,-2.23,-2.11,0,*53
1520838189.1,61699,8.81,72188.0,-1.21,-2.19,-2.19,0,*53
1520838190.36,61700,8.81,72186.5,-1.21,-2.11,-2.07,0,*55
1520838191.61,61701,8.81,72184.5,-1.21,-2.07,-2.07,0,*53
1520838192.88,61702,8.81,72164.0,-1.19,-2.03,-2.03,0,*5B
1520838194.14,61703,8.81,72156.5,-1.19,-2.03,-1.95,0,*56
1520838195.39,61704,8.81,72148.5,-1.21,-1.99,-1.99,0,*56
1520838196.65,61705,8.81,72160.3,-1.21,-1.99,-1.99,0,*57
1520838197.9,61706,8.81,72164.0,-1.21,-1.99,-1.99,0,*54
1520838199.15,61707,8.81,72136.5,-1.21,-1.95,-1.99,0,*59
1520838200.4,61708,8.81,72140.0,-1.19,-1.91,-1.95,0,*55
1520838201.67,61709,8.81,72140.5,-1.19,-1.95,-2.03,0,*5C
1520838202.92,61710,8.81,72140.5,-1.21,-2.07,-2.07,0,*53
1520838204.17,61711,8.81,72148.3,-1.21,-2.07,-2.07,0,*52
1520838205.42,61712,8.81,72150.8,-1.21,-2.07,-2.07,0,*51
1520838206.69,61713,8.81,72148.5,-1.19,-2.03,-2.03,0,*5B
1520838207.96,61714,8.81,72160.3,-1.19,-2.03,-2.03,0,*5C
1520838209.18,61715,8.81,72156.3,-1.21,-2.19,-2.11,0,*5E
1520838210.39,61716,8.81,72156.3,-1.21,-2.19,-2.11,0,*5D
1520838211.64,61717,8.81,72148.3,-1.21,-2.11,-2.07,0,*53
1520838212.89,61718,8.81,72154.0,-1.21,-2.11,-2.11,0,*5B
1520838214.14,61719,8.81,72150.3,-1.21,-2.11,-2.11,0,*5A
1520838215.42,61720,8.81,72160.3,-1.19,-2.07,-2.07,0,*5B
1520838216.66,61721,8.81,72162.0,-1.21,-2.11,-2.11,0,*51
1520838217.91,61722,8.81,72158.5,-1.21,-2.07,-2.11,0,*55
1520838219.15,61723,8.81,72156.3,-1.19,-2.15,-2.07,0,*5B
1520838220.4,61724,8.81,72158.8,-1.21,-2.11,-2.11,0,*54
1520838221.65,61725,8.88,72162.0,-1.21,-2.07,-2.11,0,*52
1520838222.92,61726,8.81,72166.0,-1.19,-1.95,-2.07,0,*55
1520838224.19,61727,8.81,72154.0,-1.19,-2.03,-2.07,0,*58
1520838225.44,61728,8.81,72164.3,-1.19,-2.07,-2.15,0,*50
1520838226.69,61729,8.81,72162.8,-1.21,-2.11,-2.11,0,*59
1520838227.93,61730,8.81,72162.8,-1.21,-2.11,-2.11,0,*51
1520838229.21,61731,8.81,72156.0,-1.19,-2.07,-2.07,0,*5B
1520838230.48,61732,8.81,72166.8,-1.19,-2.07,-2.07,0,*58
1520838231.75,61733,8.81,72158.8,-1.19,-2.07,-2.07,0,*59
1520838233.0,61734,8.88,72148.5,-1.21,-2.11,-2.11,0,*55
1520838234.22,61735,8.81,72140.5,-1.21,-2.19,-2.11,0,*5C
1520838235.49,61736,8.81,72160.8,-1.19,-2.07,-2.07,0,*5C
1520838236.76,61737,8.81,72172.3,-1.19,-2.07,-2.07,0,*5D
1520838237.95,61738,8.81,72156.5,-1.17,-2.15,-2.15,0,*5C
1520838239.14,61739,8.81,72168.8,-1.21,-2.23,-2.19,0,*51
1520838240.34,61740,8.81,72168.8,-1.21,-2.23,-2.19,0,*5F
1520838241.55,61741,8.81,72176.5,-1.19,-2.19,-2.15,0,*50
1520838242.74,61742,8.81,72176.3,-1.21,-2.23,-2.19,0,*5D
1520838243.96,61743,8.81,72180.8,-1.19,-2.15,-2.19,0,*52
1520838245.17,61744,8.81,72190.0,-1.19,-2.15,-2.15,0,*59
1520838246.37,61745,8.81,72176.0,-1.21,-2.19,-2.19,0,*53
1520838247.56,61746,8.81,72166.3,-1.21,-2.23,-2.19,0,*59
1520838248.77,61747,8.81,72172.0,-1.19,-2.19,-2.19,0,*5A
1520838249.99,61748,8.81,72178.0,-1.19,-2.19,-2.23,0,*5C
1520838251.18,61749,8.81,72166.5,-1.21,-2.19,-2.19,0,*5F
1520838252.39,61750,8.81,72148.5,-1.19,-2.27,-2.19,0,*51
1520838253.61,61751,8.81,72150.3,-1.19,-2.27,-2.27,0,*5D
1520838254.8,61752,8.81,72136.5,-1.21,-2.31,-2.43,0,*50
1520838255.99,61753,8.81,72156.3,-1.21,-2.31,-2.35,0,*50
1520838257.19,61754,8.81,72160.3,-1.21,-2.23,-2.31,0,*50
1520838258.39,61755,8.81,72160.8,-1.21,-2.31,-2.35,0,*56
1520838259.58,61756,8.81,72174.5,-1.21,-2.31,-2.27,0,*56
1520838260.77,61757,8.81,72172.0,-1.21,-2.35,-2.31,0,*54
1520838261.99,61758,8.81,72182.8,-1.19,-2.31,-2.27,0,*53
1520838263.21,61759,8.81,72194.3,-1.19,-2.31,-2.19,0,*5F
1520838264.4,61760,8.81,72162.5,-1.21,-2.23,-2.23,0,*54
1520838265.59,61761,8.81,72154.3,-1.21,-2.23,-2.23,0,*55
1520838266.79,61762,8.81,72178.0,-1.21,-2.23,-2.23,0,*56
1520838267.98,61763,8.81,72164.0,-1.21,-2.23,-2.23,0,*57
1520838269.2,61764,8.81,72168.0,-1.21,-2.19,-2.11,0,*58
1520838270.42,61765,8.81,72168.8,-1.21,-2.19,-2.11,0,*59
1520838271.63,61766,8.81,72164.3,-1.21,-2.19,-2.11,0,*5A
1520838272.83,61767,8.81,72164.3,-1.21,-2.19,-2.19,0,*53
1520838274.05,61768,8.81,72166.3,-1.21,-2.11,-2.19,0,*54
1520838275.24,61769,8.81,72156.5,-1.21,-2.19,-2.19,0,*5D
1520838276.43,61770,8.81,72170.8,-1.21,-2.19,-2.19,0,*55
1520838277.62,61771,8.81,72170.3,-1.21,-2.19,-2.19,0,*54
1520838278.84,61772,8.81,72148.8,-1.21,-2.19,-2.11,0,*5F
1520838280.05,61773,8.81,72148.5,-1.19,-2.19,-2.15,0,*51
1520838281.25,61774,8.81,72144.8,-1.21,-2.31,-2.31,0,*51
1520838282.45,61775,8.81,72162.0,-1.21,-2.35,-2.31,0,*54
1520838283.64,61776,8.81,72150.5,-1.21,-2.35,-2.31,0,*57
1520838284.84,61777,8.81,72144.8,-1.21,-2.35,-2.35,0,*52
1520838286.03,61778,8.81,72140.3,-1.21,-2.43,-2.35,0,*5C
1520838287.22,61779,8.81,72144.0,-1.21,-2.43,-2.35,0,*5D
1520838288.41,61780,8.81,72156.8,-1.21,-2.43,-2.43,0,*5A
1520838289.66,61781,8.81,72158.8,-1.21,-2.47,-2.47,0,*5B
1520838290.94,61782,8.81,72164.5,-1.23,-2.47,-2.47,0,*5A
1520838292.15,61783,8.81,72156.8,-1.25,-2.47,-2.39,0,*54
1520838293.37,61784,8.81,72174.3,-1.23,-2.39,-2.39,0,*5C
1520838294.62,61785,8.81,72170.0,-1.23,-2.47,-2.39,0,*54
1520838295.84,61786,8.81,72156.8,-1.23,-2.39,-2.39,0,*5E
1520838297.05,61787,8.81,72160.5,-1.23,-2.39,-2.39,0,*5F
1520838298.27,61788,8.81,72158.8,-1.23,-2.39,-2.35,0,*5C
1520838299.49,61789,8.81,72168.0,-1.23,-2.39,-2.35,0,*5D
1520838300.67,61790,8.81,72162.0,-1.25,-2.27,-2.27,0,*5F
1520838301.89,61791,8.81,72170.5,-1.23,-2.27,-2.23,0,*5C
1520838303.11,61792,8.81,72170.3,-1.23,-2.27,-2.27,0,*5B
1520838304.32,61793,8.81,72150.8,-1.23,-2.23,-2.27,0,*5E
1520838305.5,61794,8.81,72156.0,-1.25,-2.27,-2.27,0,*5B
1520838306.7,61795,8.81,72172.3,-1.25,-2.35,-2.23,0,*5D
1520838307.92,61796,8.81,72170.5,-1.23,-2.23,-2.15,0,*5A
1520838309.14,61797,8.81,72174.0,-1.23,-2.23,-2.23,0,*5E
1520838310.36,61798,8.81,72180.5,-1.23,-2.15,-2.15,0,*51
1520838311.58,61799,8.81,72184.0,-1.23,-2.15,-2.23,0,*55
1520838312.8,61800,8.81,72168.0,-1.23,-2.23,-2.15,0,*5A
1520838314.01,61801,8.81,72182.3,-1.23,-2.15,-2.15,0,*5E
1520838315.23,61802,8.81,72182.8,-1.23,-2.15,-2.15,0,*5D
1520838316.45,61803,8.81,72168.3,-1.23,-2.15,-2.23,0,*59
1520838317.68,61804,8.81,72140.0,-1.23,-2.23,-2.23,0,*5B
1520838318.9,61805,8.81,72144.0,-1.23,-2.15,-2.23,0,*5F
1520838320.12,61806,8.81,72156.3,-1.23,-2.15,-2.15,0,*59
1520838321.33,61807,8.81,72154.0,-1.23,-2.15,-2.15,0,*58
1520838322.55,61808,8.81,72154.0,-1.23,-2.23,-2.15,0,*52
1520838323.78,61809,8.81,72162.5,-1.23,-2.23,-2.23,0,*56
1520838325.0,61810,8.81,72154.5,-1.23,-2.23,-2.23,0,*5E
1520838326.25,61811,8.81,72164.5,-1.21,-2.11,-2.11,0,*5D
1520838327.47,61812,8.81,72168.5,-1.23,-2.23,-2.23,0,*5C
1520838328.69,61813,8.81,72168.8,-1.23,-2.23,-2.23,0,*5D
1520838329.93,61814,8.81,72174.0,-1.23,-2.23,-2.11,0,*5B
1520838331.15,61815,8.81,72168.5,-1.23,-2.23,-2.15,0,*5E
1520838332.37,61816,8.81,72158.8,-1.21,-2.19,-2.11,0,*52
1520838333.58,61817,8.81,72160.0,-1.19,-2.15,-2.15,0,*50
1520838334.8,61818,8.81,72172.8,-1.23,-2.15,-2.23,0,*53
1520838336.03,61819,8.81,72168.0,-1.23,-2.23,-2.23,0,*57
1520838337.22,61820,8.81,72170.8,-1.21,-2.19,-2.19,0,*5F
1520838338.44,61821,8.81,72178.3,-1.23,-2.23,-2.23,0,*5C
1520838339.66,61822,8.81,72174.8,-1.23,-2.15,-2.23,0,*5A
1520838340.85,61823,8.81,72176.0,-1.25,-2.15,-2.23,0,*5D
1520838342.07,61824,8.81,72178.3,-1.21,-2.11,-2.19,0,*53
1520838343.3,61825,8.81,72178.3,-1.21,-2.11,-2.19,0,*52
1520838344.52,61826,8.81,72182.0,-1.21,-2.11,-2.19,0,*51
1520838345.76,61827,8.81,72170.0,-1.19,-2.07,-2.19,0,*5C
1520838346.99,61828,8.81,72182.0,-1.23,-2.15,-2.23,0,*50
1520838348.2,61829,8.81,72178.0,-1.23,-2.23,-2.15,0,*51
1520838349.45,61830,8.81,72172.3,-1.21,-2.11,-2.11,0,*5E
1520838350.67,61831,8.81,72172.8,-1.21,-2.19,-2.11,0,*57
1520838351.92,61832,8.81,72180.3,-1.21,-2.11,-2.11,0,*5C
1520838353.17,61833,8.81,72180.0,-1.21,-2.11,-2.11,0,*5D
1520838354.41,61834,8.81,72176.8,-1.19,-2.07,-2.15,0,*52
1520838355.66,61835,8.81,72182.5,-1.21,-2.11,-2.11,0,*5B
1520838356.91,61836,8.81,72180.8,-1.21,-2.11,-2.11,0,*58
1520838358.18,61837,8.81,72182.3,-1.19,-2.03,-2.03,0,*52
1520838359.43,61838,8.81,72182.0,-1.21,-2.07,-2.07,0,*56
1520838360.68,61839,8.81,72182.8,-1.21,-2.07,-2.07,0,*57
1520838361.94,61840,8.81,72178.3,-1.19,-2.07,-1.95,0,*5A
1520838363.2,61841,8.81,72156.8,-1.21,-1.99,-2.07,0,*5C
1520838364.44,61842,8.81,72166.3,-1.21,-2.07,-2.07,0,*5B
1520838365.69,61843,8.81,72186.0,-1.21,-2.11,-2.11,0,*5A
1520838366.93,61844,8.81,72172.3,-1.19,-2.19,-2.11,0,*5E
1520838368.15,61845,8.81,72174.8,-1.19,-2.27,-2.15,0,*56
1520838369.34,61846,8.81,72158.5,-1.21,-2.23,-2.23,0,*5F
1520838370.54,61847,8.81,72176.3,-1.21,-2.23,-2.31,0,*5D
1520838371.75,61848,8.81,72166.5,-1.19,-2.27,-2.27,0,*5A
1520838372.96,61849,8.81,72194.0,-1.19,-2.19,-2.27,0,*56
1520838374.16,61850,8.81,72176.3,-1.21,-2.31,-2.23,0,*5B
1520838375.35,61851,8.81,72168.5,-1.21,-2.31,-2.27,0,*5E
1520838376.55,61852,8.81,72168.3,-1.21,-2.31,-2.31,0,*5A
1520838377.75,61853,8.81,72156.8,-1.21,-2.31,-2.31,0,*5B
1520838378.95,61854,8.81,72158.5,-1.21,-2.31,-2.31,0,*5C
1520838380.15,61855,8.81,72162.8,-1.21,-2.31,-2.31,0,*5D
1520838381.34,61856,8.81,72174.8,-1.21,-2.35,-2.31,0,*5A
1520838382.53,61857,8.81,72178.3,-1.21,-2.35,-2.35,0,*5F
1520838383.73,61858,8.81,72146.8,-1.21,-2.35,-2.31,0,*54
1520838384.95,61859,8.81,72134.8,-1.19,-2.31,-2.27,0,*5D
1520838386.14,61860,8.81,72140.8,-1.21,-2.31,-2.35,0,*5F
1520838387.34,61861,8.81,72148.5,-1.21,-2.31,-2.35,0,*5E
1520838388.53,61862,8.81,72148.8,-1.21,-2.31,-2.23,0,*5A
1520838389.73,61863,8.81,72174.8,-1.21,-2.31,-2.23,0,*5B
1520838390.93,61864,8.81,72172.0,-1.21,-2.23,-2.23,0,*5F
1520838392.12,61865,8.81,72178.8,-1.21,-2.23,-2.23,0,*5E
1520838393.32,61866,8.81,72194.8,-1.21,-2.31,-2.23,0,*5E
1520838394.51,61867,8.88,72196.5,-1.21,-2.23,-2.23,0,*5C
1520838395.71,61868,8.81,72196.8,-1.21,-2.23,-2.23,0,*53
1520838396.9,61869,8.81,72192.5,-1.21,-2.23,-2.19,0,*5B
1520838398.09,61870,8.81,72176.5,-1.21,-2.19,-2.19,0,*5A
1520838399.31,61871,8.81,72166.8,-1.21,-2.19,-2.11,0,*53
1520838400.5,61872,8.81,72176.8,-1.21,-2.19,-2.19,0,*58
1520838401.69,61873,8.81,72168.8,-1.21,-2.15,-2.15,0,*59
1520838402.91,61874,8.81,72146.5,-1.21,-2.19,-2.11,0,*56
1520838404.18,61875,8.81,72132.5,-1.19,-2.07,-2.07,0,*54
1520838405.43,61876,8.81,72162.8,-1.21,-2.11,-2.11,0,*5C
1520838406.65,61877,8.81,72154.0,-1.21,-2.11,-2.19,0,*55
1520838407.9,61878,8.81,72134.8,-1.21,-2.11,-2.11,0,*52
1520838409.09,61879,8.81,72136.5,-1.21,-2.19,-2.19,0,*53
1520838410.31,61880,8.81,72132.3,-1.19,-2.15,-2.19,0,*52
1520838411.5,61881,8.81,72106.3,-1.21,-2.19,-2.23,0,*5D
1520838412.7,61882,8.81,72140.8,-1.21,-2.23,-2.23,0,*57
1520838413.89,61883,8.88,72134.8,-1.21,-2.31,-2.31,0,*56
1520838415.09,61884,8.81,72124.5,-1.21,-2.23,-2.23,0,*51
1520838416.28,61885,8.81,72132.8,-1.21,-2.23,-2.23,0,*50
1520838417.47,61886,8.81,72142.3,-1.21,-2.19,-2.19,0,*53
1520838418.72,61887,8.81,72136.8,-1.19,-2.15,-2.07,0,*5A
1520838419.97,61888,8.81,72146.8,-1.21,-2.11,-2.11,0,*5D
1520838421.22,61889,8.81,72150.5,-1.21,-2.11,-2.11,0,*5C
1520838422.46,61890,8.81,72164.5,-1.21,-2.11,-2.11,0,*54
1520838423.71,61891,8.81,72160.3,-1.21,-2.11,-2.11,0,*55
1520838424.96,61892,8.81,72160.8,-1.21,-2.11,-2.11,0,*56
1520838426.21,61893,8.81,72154.8,-1.21,-2.11,-2.11,0,*57
1520838427.45,61894,8.81,72162.3,-1.19,-2.07,-2.15,0,*58
1520838428.7,61895,8.81,72184.5,-1.19,-2.15,-2.07,0,*59
1520838429.95,61896,8.81,72160.5,-1.21,-2.11,-2.11,0,*52
1520838431.19,61897,8.81,72178.3,-1.19,-2.07,-2.15,0,*5B
1520838432.41,61898,8.81,72170.3,-1.21,-2.11,-2.19,0,*54
1520838433.66,61899,8.81,72176.0,-1.21,-2.11,-2.11,0,*5D
1520838434.92,61900,8.81,72174.5,-1.21,-2.11,-2.07,0,*5B
1520838436.17,61901,8.81,72180.0,-1.21,-2.07,-1.99,0,*59
1520838437.42,61902,8.81,72148.8,-1.19,-1.95,-1.95,0,*55
1520838438.68,61903,8.81,72158.3,-1.21,-1.99,-1.99,0,*5F
1520838439.93,61904,8.88,72162.5,-1.21,-2.03,-1.99,0,*58
1520838441.19,61905,8.81,72178.3,-1.19,-2.03,-1.95,0,*5E
1520838442.46,61906,8.81,72148.8,-1.19,-1.95,-1.91,0,*55
1520838443.72,61907,8.81,72122.3,-1.19,-1.95,-1.91,0,*54
1520838444.99,61908,8.81,72138.8,-1.19,-1.95,-1.91,0,*5B
1520838446.25,61909,8.81,72156.0,-1.19,-1.95,-1.87,0,*5D
1520838447.49,61910,8.81,72152.0,-1.21,-1.95,-1.95,0,*5D
1520838448.75,61911,8.81,72148.8,-1.19,-1.91,-1.91,0,*57
1520838450.02,61912,8.81,72164.0,-1.19,-1.91,-1.87,0,*53
1520838451.28,61913,8.81,72152.5,-1.19,-1.91,-1.91,0,*55
1520838452.53,61914,8.81,72142.0,-1.15,-1.91,-1.87,0,*59
1520838453.78,61915,8.81,72142.5,-1.17,-2.03,-1.91,0,*55
1520838455.02,61916,8.81,72142.0,-1.17,-1.91,-2.03,0,*56
1520838456.25,61917,8.81,72148.5,-1.17,-1.95,-1.95,0,*5F
1520838457.5,61918,8.81,72148.3,-1.15,-1.91,-1.99,0,*5A
1520838458.74,61919,8.81,72140.3,-1.17,-2.03,-1.95,0,*5D
1520838459.98,61920,8.81,72140.3,-1.17,-2.03,-2.03,0,*5B
1520838461.24,61921,8.81,72156.8,-1.15,-2.03,-1.91,0,*50
1520838462.47,61922,8.81,72168.8,-1.17,-1.95,-1.95,0,*59
1520838463.7,61923,8.81,72152.3,-1.17,-1.95,-1.95,0,*58
1520838464.94,61924,8.81,72158.5,-1.17,-1.95,-1.95,0,*5F
1520838466.18,61925,8.81,72156.5,-1.17,-2.03,-2.03,0,*5E
1520838467.41,61926,8.81,72162.8,-1.17,-1.95,-1.95,0,*5D
1520838468.65,61927,8.81,72172.5,-1.17,-1.95,-2.03,0,*50
1520838469.89,61928,8.81,72158.3,-1.17,-2.03,-1.95,0,*5F
1520838471.14,61929,8.81,72150.0,-1.15,-2.03,-2.03,0,*50
1520838472.4,61930,8.81,72152.8,-1.15,-1.99,-1.99,0,*58
1520838473.65,61931,8.81,72160.3,-1.15,-1.91,-2.03,0,*51
1520838474.91,61932,8.81,72164.8,-1.15,-2.03,-2.03,0,*5A
1520838476.14,61933,8.81,72146.0,-1.17,-2.07,-1.95,0,*51
1520838477.38,61934,8.81,72144.8,-1.17,-1.95,-2.03,0,*52
1520838478.63,61935,8.81,72140.3,-1.15,-1.91,-1.91,0,*5D
1520838479.88,61936,8.81,72178.8,-1.15,-1.95,-1.91,0,*5A
1520838481.11,61937,8.81,72142.8,-1.17,-1.95,-1.95,0,*5D
1520838482.36,61938,8.81,72078.5,-1.15,-1.91,-1.91,0,*50
1520838483.61,61939,8.81,72126.5,-1.15,-1.91,-1.91,0,*51
1520838484.86,61940,8.81,72152.0,-1.15,-1.91,-1.87,0,*58
1520838486.1,61941,8.88,72160.3,-1.17,-1.95,-1.91,0,*58
1520838487.35,61942,8.88,72172.3,-1.15,-1.87,-1.87,0,*5D
1520838488.61,61943,8.81,72144.3,-1.15,-1.87,-1.87,0,*5C
1520838489.86,61944,8.81,72126.8,-1.15,-1.87,-1.87,0,*5B
1520838491.11,61945,8.81,72146.8,-1.15,-1.91,-1.87,0,*5D
1520838492.37,61946,8.81,72162.0,-1.15,-1.99,-1.91,0,*51
1520838493.62,61947,8.81,72134.0,-1.15,-1.91,-1.91,0,*58
1520838494.87,61948,8.81,72172.3,-1.15,-1.99,-1.91,0,*5F
1520838496.13,61949,8.81,72150.8,-1.15,-1.99,-1.99,0,*56
1520838497.39,61950,8.88,72142.0,-1.15,-1.99,-1.99,0,*5E
1520838498.65,61951,8.81,72140.0,-1.15,-1.99,-1.99,0,*5F
1520838499.91,61952,8.81,72136.0,-1.15,-1.99,-1.91,0,*54
1520838501.17,61953,8.81,72160.5,-1.15,-1.99,-1.99,0,*5D
1520838502.43,61954,8.81,72144.8,-1.15,-1.99,-1.99,0,*5A
1520838503.69,61955,8.81,72190.3,-1.15,-2.03,-1.99,0,*5B
1520838504.95,61956,8.81,72192.5,-1.15,-2.03,-1.99,0,*58
1520838506.2,61957,8.81,72186.5,-1.15,-2.03,-1.99,0,*59
1520838507.46,61958,8.81,72178.0,-1.15,-2.03,-1.99,0,*56
1520838508.7,61959,8.81,72176.3,-1.17,-2.07,-2.03,0,*51
1520838509.95,61960,8.81,72130.0,-1.15,-1.91,-1.91,0,*5D
1520838511.21,61961,8.81,72146.0,-1.15,-1.99,-1.99,0,*5C
1520838512.47,61962,8.81,72186.0,-1.15,-1.99,-1.91,0,*57
1520838513.75,61963,8.81,72180.8,-1.13,-1.91,-1.99,0,*50
1520838515.03,61964,8.88,72158.5,-1.13,-1.99,-1.99,0,*5F
1520838516.32,61965,8.81,72180.0,-1.13,-1.99,-1.99,0,*5E
1520838517.6,61966,8.81,72168.0,-1.13,-1.99,-1.99,0,*5D